Home > Weather > Ulyanovsk > Past weeks

Flag for Russia Past Weather in Ulyanovsk, Russia — Yesterday and Last 2 Weeks

Now
64 °F

Partly sunny.


Feels Like: 64 °F
Forecast: 64 / 77 °F
Wind: 6 mph from West

Location: Ulyanovsk Vostochny Airport

Current Time: Jul 1, 2016 at 12:15:30 PM

Latest Report: Jul 1, 2016 at 11:00 AM


Visibility: 5 mi

Pressure: 29.98 "Hg

Humidity: 78%

Dew Point: 57 °F

Location of UlyanovskLocation

Past Weather in Ulyanovsk — Graph

°F

Ulyanovsk Temperature Yesterday

Maximum temperature yesterday: 73 °F (at 3:00 PM)
Minimum temperature yesterday: 50 °F (at 3:00 AM)
Average temperature yesterday: 64 °F

High & Low Weather Summary for the Past Weeks

 TemperatureHumidityPressure
High88 °F (Jun 17, 2:00 PM)100% (Jun 21, 12:00 AM)30.21 "Hg (Jun 21, 12:00 AM)
Low50 °F (Jun 29, 5:00 AM)33% (Jun 22, 3:00 PM)29.65 "Hg (Jun 27, 3:00 PM)
Average70 °F70%30.00 "Hg
* Reported Jun 16 11:00 AM — Jul 1 11:00 AM, Ulyanovsk, Weather by CustomWeather, © 2016

Note: Actual official high and low records may vary slightly from our data, if they occured in-between our weather recording intervals... More about our weather records

Advertising

Ulyanovsk Weather History for the Previous 24 Hours

Scroll right to see more
 ConditionsComfort  
Time TempWeatherWind HumidityBarometerVisibility
11:00 AM
Fri, Jul 1
64 °FPartly sunny.6 mph78%29.98 "Hg5 mi
10:00 AM63 °FSprinkles. Partly sunny.8 mph88%29.98 "Hg5 mi
9:00 AM64 °FPartly sunny.No wind83%29.98 "Hg5 mi
8:00 AM61 °FSprinkles. Partly sunny.3 mph88%29.98 "Hg5 mi
7:00 AM61 °FPartly sunny.3 mph88%29.98 "Hg5 mi
6:00 AM61 °FPartly sunny.1 mph88%29.98 "Hg5 mi
5:00 AM59 °FPartly sunny.3 mph88%29.95 "Hg5 mi
4:00 AM55 °FPassing clouds.3 mph94%29.95 "Hg5 mi
3:00 AM55 °FPassing clouds.1 mph88%29.95 "Hg5 mi
2:00 AM55 °FClear.3 mph94%29.95 "Hg5 mi
1:00 AM57 °FClear.3 mph88%29.95 "Hg5 mi
12:00 AM61 °FClear.3 mph83%29.95 "Hg5 mi
11:00 PM
Thu, Jun 30
64 °FPassing clouds.6 mph73%29.95 "Hg5 mi
10:00 PM63 °FPassing clouds.3 mph77%29.92 "Hg5 mi
9:00 PM64 °FScattered clouds.6 mph73%29.92 "Hg5 mi
8:00 PM70 °FPartly sunny.8 mph60%29.89 "Hg5 mi
7:00 PM72 °FPassing clouds.10 mph53%29.89 "Hg5 mi
6:00 PM72 °FPassing clouds.6 mph57%29.89 "Hg5 mi
5:00 PM72 °FScattered clouds.8 mph50%29.89 "Hg5 mi
4:00 PM73 °FScattered clouds.10 mph47%29.89 "Hg5 mi
3:00 PM73 °FPassing clouds.10 mph44%29.89 "Hg5 mi
2:00 PM72 °FPassing clouds.10 mph47%29.89 "Hg5 mi
1:00 PM70 °FPassing clouds.8 mph53%29.89 "Hg5 mi
12:00 PM70 °FPassing clouds.8 mph53%29.89 "Hg5 mi
Weather by CustomWeather, © 2016

See weather overviewHow to use our weather pages